User: anonymous   Login
Location: Cherry Road
(34.5193°N, 112.0852°W)
Time: 05:27:35
(UTC-07:00)
Language:

Hubble Space Telescope - Orbit

View from above orbital plane
View from above orbital plane
View from above satellite
View from above satellite

Ground track
Ground track

The orbit data is extracted from the following two-line orbital elements,

1 20580U 90037B   18173.93668685 +.00000440 +00000-0 +15957-4 0  9994
2 20580 028.4701 077.0976 0002693 198.1404 249.5586 15.09054825346250
Epoch (UTC): 22 June 2018 22:28:49
Eccentricity: 0.0002693
inclination: 28.4701°
perigee height: 537 km
apogee height: 541 km
right ascension of ascending node: 77.0976°
argument of perigee: 198.1404°
revolutions per day: 15.09054825
mean anomaly at epoch: 249.5586°
orbit number at epoch: 34625

The dashed part of the orbit path shows where the satellite is in the earth's shadow,  

DLR